Hourly Weather Roundup
Issued by NWS Central Illinois

Home | Current Version | Previous Version | Text Only | Print | Product List | Glossary On
Versions: 1 2 3 4 5 6 7 8 9 10 11 12 13 14 15 16 17 18 19 20 21 22 23 24 25 26 27 28 29 30 31 32 33 34 35 36 37 38 39 40 41 42 43 44 45 46 47 48 49 50
000
NZUS43 KILX 221410
HWRILX

AREA WEATHER ROUNDUP
NATIONAL WEATHER SERVICE, LINCOLN IL
900 AM CDT WED OCT 22 2014


CITY           SKY/WX    TMP DP  RH WIND       PRES   REMARKS
BLOOMINGTON    SUNNY     44  40  86 CALM      30.36R
CHAMPAIGN      SUNNY     44  39  82 E6        30.34R
DECATUR        SUNNY     44  39  82 E7        30.35R
FLORA          SUNNY     45  41  85 E6        30.34R
GALESBURG      SUNNY     42  38  87 E8        30.34S
JACKSONVILLE   SUNNY     44  41  88 E3        30.34R
LACON          FOG       37  37  98 CALM      30.36R VSB<1/4
LAWRENCEVILLE  SUNNY     47  41  80 NE7       30.33R
LITCHFIELD     SUNNY     44  38  80 E10       30.32R
$$


CITY           SKY/WX    TMP DP  RH WIND       PRES   REMARKS
LINCOLN        SUNNY     43  41  94 E5        30.35R
MACOMB         SUNNY     39  39 100 CALM      30.36R FOG
MATTOON        SUNNY     42  38  85 E5        30.33R
MT CARMEL AP   SUNNY     48  43  81 NE9       30.33R
OLNEY-NOBLE AP SUNNY     45  41  87 CALM      30.34R
PARIS          SUNNY     44  40  86 E3        30.35R
PEORIA         SUNNY     44  39  82 E7        30.35R
PONTIAC        SUNNY     44  38  82 E8        30.37R
RANTOUL          N/A    N/A N/A N/A MISG      30.35S
ROBINSON       SUNNY     46  43  90 NE3       30.35R
SPRINGFIELD    SUNNY     44  39  82 E7        30.34R
TAYLORVILLE    SUNNY     43  37  81 E6        30.34R
$$

...REGIONAL REPORTS...


CITY           SKY/WX    TMP DP  RH WIND       PRES   REMARKS
CHICAGO O`HARE MOSUNNY   46  40  79 NE6       30.35R
KANKAKEE       SUNNY     43  39  86 E6        30.36R
MOLINE         SUNNY     38  35  89 E5        30.34S WCI  34
MOUNT VERNON   SUNNY     46  39  76 NE6       30.33R
PITTSFIELD     SUNNY     46  41  84 E3        30.34R
QUINCY         SUNNY     45  40  82 SE9       30.31R
ROCKFORD       SUNNY     39  35  86 CALM      30.38R
$$


CITY           SKY/WX    TMP DP  RH WIND       PRES   REMARKS
BURLINGTON     SUNNY     43  39  86 E8        30.32R
CEDAR RAPIDS   SUNNY     41  39  93 SE6       30.30S
DES MOINES     MOSUNNY   46  39  76 SE9       30.24R
KIRKSVILLE     SUNNY     45  42  89 SE10      30.29R
OTTUMWA        NOT AVBL
ST LOUIS       SUNNY     48  41  76 E8        30.32R
$$


CITY           SKY/WX    TMP DP  RH WIND       PRES   REMARKS
TERRE HAUTE    SUNNY     45  39  79 NE5       30.34R
EVANSVILLE     SUNNY     48  42  80 NE6       30.32R
INDIANAPOLIS   MOSUNNY   44  37  76 NE8       30.31R
LAFAYETTE      SUNNY     42  37  82 E7        30.34R
MADISON        MOSUNNY   36  33  89 CALM      30.36S
MILWAUKEE      MOSUNNY   43  36  76 NW5       30.37R
$$





USA.gov is the U.S. government's official web portal to all federal, state and local government web resources and services.